Time,TemperatureF,DewpointF,PressureIn,WindDirection,WindDirectionDegrees,WindSpeedMPH,WindSpeedGustMPH,Humidity,HourlyPrecipIn,Conditions,Clouds,dailyrainin,SoftwareType,DateUTC
2013-11-30 00:04:00,37.6,30.7,30.37,SE,135,2.3,2.3,76,0.00,CLR,,0.00,WeatherDisplay:10.37,2013-11-30 06:04:00,
2013-11-30 00:09:00,37.8,30.9,30.37,SE,135,2.3,2.3,76,0.00,CLR,,0.00,WeatherDisplay:10.37,2013-11-30 06:09:00,
2013-11-30 00:14:00,37.9,31.4,30.37,ESE,112,2.3,2.3,77,0.00,CLR,,0.00,WeatherDisplay:10.37,2013-11-30 06:14:00,
2013-11-30 00:19:00,37.9,31.4,30.37,SE,135,1.2,0.0,77,0.00,CLR,,0.00,WeatherDisplay:10.37,2013-11-30 06:19:00,
2013-11-30 00:24:00,37.9,31.4,30.37,SSE,158,1.2,1.2,77,0.00,CLR,,0.00,WeatherDisplay:10.37,2013-11-30 06:24:00,
2013-11-30 00:29:00,37.9,31.4,30.37,SE,135,0.0,0.0,77,0.00,CLR,,0.00,WeatherDisplay:10.37,2013-11-30 06:29:00,
2013-11-30 00:34:00,37.9,31.4,30.37,SE,135,0.0,0.0,77,0.00,CLR,,0.00,WeatherDisplay:10.37,2013-11-30 06:34:00,
2013-11-30 00:39:00,37.9,31.4,30.37,South,180,2.3,2.3,77,0.00,CLR,,0.00,WeatherDisplay:10.37,2013-11-30 06:39:00,
2013-11-30 00:44:00,37.9,31.4,30.34,South,180,0.0,0.0,77,0.00,CLR,,0.00,WeatherDisplay:10.37,2013-11-30 06:44:00,
2013-11-30 00:49:00,37.9,31.4,30.34,SW,225,1.4,0.0,77,0.00,CLR,,0.00,WeatherDisplay:10.37,2013-11-30 06:49:00,
2013-11-30 00:54:00,37.9,31.4,30.34,SSE,158,2.3,2.3,77,0.00,CLR,,0.00,WeatherDisplay:10.37,2013-11-30 06:54:00,
2013-11-30 00:59:00,38.1,31.5,30.34,SSW,202,2.4,2.4,77,0.00,CLR,,0.00,WeatherDisplay:10.37,2013-11-30 06:59:00,
2013-11-30 01:04:00,38.1,31.5,30.34,SW,225,2.3,2.3,77,0.00,CLR,,0.00,WeatherDisplay:10.37,2013-11-30 07:04:00,
2013-11-30 01:09:00,38.3,31.7,30.34,SW,225,2.3,2.3,77,0.00,CLR,,0.00,WeatherDisplay:10.37,2013-11-30 07:09:00,
2013-11-30 01:14:00,38.5,31.9,30.37,SW,225,1.2,0.0,77,0.00,CLR,,0.00,WeatherDisplay:10.37,2013-11-30 07:14:00,
2013-11-30 01:19:00,38.5,31.9,30.37,South,180,1.2,0.0,77,0.00,CLR,,0.00,WeatherDisplay:10.37,2013-11-30 07:19:00,
2013-11-30 01:24:00,38.5,31.9,30.37,WSW,248,1.2,1.2,77,0.00,CLR,,0.00,WeatherDisplay:10.37,2013-11-30 07:24:00,
2013-11-30 01:30:00,38.5,31.6,30.34,SW,225,1.6,0.0,76,0.00,CLR,,0.00,WeatherDisplay:10.37,2013-11-30 07:30:00,
2013-11-30 01:35:00,38.5,31.6,30.34,WSW,248,2.3,2.3,76,0.00,CLR,,0.00,WeatherDisplay:10.37,2013-11-30 07:35:00,
2013-11-30 01:40:00,38.5,31.6,30.34,SW,225,0.0,0.0,76,0.00,CLR,,0.00,WeatherDisplay:10.37,2013-11-30 07:40:00,
2013-11-30 01:45:00,38.5,31.6,30.34,SE,135,0.0,0.0,76,0.00,CLR,,0.00,WeatherDisplay:10.37,2013-11-30 07:45:00,
2013-11-30 01:50:00,38.5,31.6,30.34,SW,225,1.2,0.0,76,0.00,CLR,,0.00,WeatherDisplay:10.37,2013-11-30 07:50:00,
2013-11-30 01:55:00,38.5,31.6,30.34,SSW,202,2.4,2.4,76,0.00,CLR,,0.00,WeatherDisplay:10.37,2013-11-30 07:55:00,
2013-11-30 02:00:00,38.3,31.4,30.34,SW,225,2.3,2.3,76,0.00,CLR,,0.00,WeatherDisplay:10.37,2013-11-30 08:00:00,
2013-11-30 02:05:00,38.3,31.4,30.34,WSW,248,3.5,3.5,76,0.00,CLR,,0.00,WeatherDisplay:10.37,2013-11-30 08:05:00,
2013-11-30 02:10:00,38.3,31.7,30.34,South,180,3.5,3.5,77,0.00,CLR,,0.00,WeatherDisplay:10.37,2013-11-30 08:10:00,
2013-11-30 02:15:00,38.3,31.7,30.34,SW,225,1.6,1.6,77,0.00,CLR,,0.00,WeatherDisplay:10.37,2013-11-30 08:15:00,
2013-11-30 02:20:00,38.3,31.7,30.34,SW,225,2.4,2.4,77,0.00,CLR,,0.00,WeatherDisplay:10.37,2013-11-30 08:20:00,
2013-11-30 02:25:00,38.3,31.7,30.34,SSW,202,3.5,3.5,77,0.00,CLR,,0.00,WeatherDisplay:10.37,2013-11-30 08:25:00,
2013-11-30 02:30:00,38.5,31.9,30.34,South,180,3.5,3.5,77,0.00,CLR,,0.00,WeatherDisplay:10.37,2013-11-30 08:30:00,
2013-11-30 02:35:00,38.5,31.9,30.34,SW,225,4.6,4.6,77,0.00,CLR,,0.00,WeatherDisplay:10.37,2013-11-30 08:35:00,
2013-11-30 02:40:00,38.5,31.9,30.34,SW,225,4.6,4.6,77,0.00,CLR,,0.00,WeatherDisplay:10.37,2013-11-30 08:40:00,
2013-11-30 02:45:00,38.7,32.4,30.34,WSW,248,5.8,5.8,78,0.00,CLR,,0.00,WeatherDisplay:10.37,2013-11-30 08:45:00,
2013-11-30 02:50:00,38.5,32.2,30.34,SW,225,5.8,5.8,78,0.00,CLR,,0.00,WeatherDisplay:10.37,2013-11-30 08:50:00,
2013-11-30 02:55:00,38.5,32.2,30.34,SW,225,4.6,4.6,78,0.00,CLR,,0.00,WeatherDisplay:10.37,2013-11-30 08:55:00,
2013-11-30 03:00:00,38.5,32.2,30.34,SW,225,4.6,4.6,78,0.00,CLR,,0.00,WeatherDisplay:10.37,2013-11-30 09:00:00,
2013-11-30 03:05:00,38.7,32.4,30.34,West,270,4.6,4.6,78,0.00,CLR,,0.00,WeatherDisplay:10.37,2013-11-30 09:05:00,
2013-11-30 03:10:00,38.5,32.2,30.34,SW,225,4.7,4.7,78,0.00,CLR,,0.00,WeatherDisplay:10.37,2013-11-30 09:10:00,
2013-11-30 03:15:00,38.5,32.2,30.31,ESE,112,1.2,1.2,78,0.00,CLR,,0.00,WeatherDisplay:10.37,2013-11-30 09:15:00,
2013-11-30 03:20:00,38.5,32.2,30.31,SSE,158,1.4,0.0,78,0.00,CLR,,0.00,WeatherDisplay:10.37,2013-11-30 09:20:00,
2013-11-30 03:25:00,38.5,32.2,30.31,ESE,112,2.4,0.0,78,0.00,CLR,,0.00,WeatherDisplay:10.37,2013-11-30 09:25:00,
2013-11-30 03:30:00,38.5,32.2,30.31,SW,225,1.2,0.0,78,0.00,CLR,,0.00,WeatherDisplay:10.37,2013-11-30 09:30:00,
2013-11-30 03:35:00,38.1,31.9,30.31,WSW,248,2.4,2.4,78,0.00,CLR,,0.00,WeatherDisplay:10.37,2013-11-30 09:35:00,
2013-11-30 03:40:00,38.1,31.9,30.31,West,270,3.5,3.5,78,0.00,CLR,,0.00,WeatherDisplay:10.37,2013-11-30 09:40:00,
2013-11-30 03:45:00,38.1,31.9,30.34,SW,225,3.5,3.5,78,0.00,CLR,,0.00,WeatherDisplay:10.37,2013-11-30 09:45:00,
2013-11-30 03:50:00,38.1,32.2,30.34,SW,225,5.4,5.4,79,0.00,CLR,,0.00,WeatherDisplay:10.37,2013-11-30 09:50:00,
2013-11-30 03:55:00,38.1,32.2,30.34,SW,225,4.6,4.6,79,0.00,CLR,,0.00,WeatherDisplay:10.37,2013-11-30 09:55:00,
2013-11-30 04:00:00,38.1,32.2,30.34,SW,225,4.6,4.6,79,0.00,CLR,,0.00,WeatherDisplay:10.37,2013-11-30 10:00:00,
2013-11-30 04:05:00,38.1,32.2,30.34,SW,225,4.6,4.6,79,0.00,CLR,,0.00,WeatherDisplay:10.37,2013-11-30 10:05:00,
2013-11-30 04:10:00,38.1,32.2,30.34,WSW,248,4.6,4.6,79,0.00,CLR,,0.00,WeatherDisplay:10.37,2013-11-30 10:10:00,
2013-11-30 04:15:00,37.9,32.0,30.34,South,180,4.6,4.6,79,0.00,CLR,,0.00,WeatherDisplay:10.37,2013-11-30 10:15:00,
2013-11-30 04:20:00,37.9,32.0,30.34,SW,225,4.6,4.6,79,0.00,CLR,,0.00,WeatherDisplay:10.37,2013-11-30 10:20:00,
2013-11-30 04:25:00,37.9,32.0,30.34,SW,225,3.8,3.8,79,0.00,CLR,,0.00,WeatherDisplay:10.37,2013-11-30 10:25:00,
2013-11-30 04:30:00,37.9,32.0,30.34,WSW,248,3.5,3.6,79,0.00,CLR,,0.00,WeatherDisplay:10.37,2013-11-30 10:30:00,
2013-11-30 04:35:00,37.9,32.3,30.34,WSW,248,4.6,4.6,80,0.00,CLR,,0.00,WeatherDisplay:10.37,2013-11-30 10:35:00,
2013-11-30 04:40:00,37.9,32.3,30.34,WSW,248,3.8,3.8,80,0.00,CLR,,0.00,WeatherDisplay:10.37,2013-11-30 10:40:00,
2013-11-30 04:45:00,37.9,32.3,30.34,SW,225,4.6,4.6,80,0.00,CLR,,0.00,WeatherDisplay:10.37,2013-11-30 10:45:00,
2013-11-30 04:50:00,38.1,32.5,30.34,SSW,202,5.8,5.8,80,0.00,CLR,,0.00,WeatherDisplay:10.37,2013-11-30 10:50:00,
2013-11-30 04:55:00,38.1,32.8,30.34,WSW,248,5.8,5.8,81,0.00,CLR,,0.00,WeatherDisplay:10.37,2013-11-30 10:55:00,
2013-11-30 05:00:00,38.3,33.0,30.34,WSW,248,5.9,5.9,81,0.00,CLR,,0.00,WeatherDisplay:10.37,2013-11-30 11:00:00,
2013-11-30 05:05:00,38.3,33.0,30.34,SW,225,5.8,5.8,81,0.00,CLR,,0.00,WeatherDisplay:10.37,2013-11-30 11:05:00,
2013-11-30 05:10:00,38.5,33.2,30.34,SW,225,6.9,6.9,81,0.00,CLR,,0.00,WeatherDisplay:10.37,2013-11-30 11:10:00,
2013-11-30 05:15:00,38.5,33.5,30.34,SW,225,6.2,6.2,82,0.00,CLR,,0.00,WeatherDisplay:10.37,2013-11-30 11:15:00,
2013-11-30 05:20:00,38.7,33.6,30.34,WSW,248,5.9,5.9,82,0.00,CLR,,0.00,WeatherDisplay:10.37,2013-11-30 11:20:00,
2013-11-30 05:25:00,38.7,33.6,30.34,WSW,248,6.4,6.4,82,0.00,CLR,,0.00,WeatherDisplay:10.37,2013-11-30 11:25:00,
2013-11-30 05:30:00,38.7,33.6,30.34,SW,225,5.8,5.8,82,0.00,CLR,,0.00,WeatherDisplay:10.37,2013-11-30 11:30:00,
2013-11-30 05:35:00,38.7,33.6,30.34,SW,225,4.7,4.7,82,0.00,CLR,,0.00,WeatherDisplay:10.37,2013-11-30 11:35:00,
2013-11-30 05:40:00,38.7,33.6,30.34,WSW,248,5.8,5.8,82,0.00,CLR,,0.00,WeatherDisplay:10.37,2013-11-30 11:40:00,
2013-11-30 05:45:00,38.5,33.5,30.34,WSW,248,5.8,5.8,82,0.00,CLR,,0.00,WeatherDisplay:10.37,2013-11-30 11:45:00,
2013-11-30 05:50:00,38.5,33.5,30.34,SW,225,6.9,6.9,82,0.00,CLR,,0.00,WeatherDisplay:10.37,2013-11-30 11:50:00,
2013-11-30 05:55:00,38.7,33.6,30.34,SW,225,5.8,5.8,82,0.00,CLR,,0.00,WeatherDisplay:10.37,2013-11-30 11:55:00,
2013-11-30 06:00:00,38.7,33.6,30.31,SW,225,6.9,6.9,82,0.00,CLR,,0.00,WeatherDisplay:10.37,2013-11-30 12:00:00,
2013-11-30 06:05:00,38.7,33.9,30.31,SW,225,5.8,5.8,83,0.00,CLR,,0.00,WeatherDisplay:10.37,2013-11-30 12:05:00,
2013-11-30 06:10:00,38.7,33.9,30.31,SSW,202,5.8,5.8,83,0.00,CLR,,0.00,WeatherDisplay:10.37,2013-11-30 12:10:00,
2013-11-30 06:15:00,38.5,33.8,30.34,SSW,202,5.8,5.8,83,0.00,CLR,,0.00,WeatherDisplay:10.37,2013-11-30 12:15:00,
2013-11-30 06:20:00,38.5,33.8,30.34,WSW,248,4.9,4.9,83,0.00,CLR,,0.00,WeatherDisplay:10.37,2013-11-30 12:20:00,
2013-11-30 06:25:00,38.7,33.9,30.34,SW,225,5.8,5.8,83,0.00,CLR,,0.00,WeatherDisplay:10.37,2013-11-30 12:25:00,
2013-11-30 06:30:00,38.5,33.8,30.34,WSW,248,5.8,5.8,83,0.00,CLR,,0.00,WeatherDisplay:10.37,2013-11-30 12:30:00,
2013-11-30 06:35:00,38.7,33.9,30.34,WSW,248,5.8,5.8,83,0.00,CLR,,0.00,WeatherDisplay:10.37,2013-11-30 12:35:00,
2013-11-30 06:40:00,38.7,34.2,30.34,WSW,248,4.6,4.6,84,0.00,CLR,,0.00,WeatherDisplay:10.37,2013-11-30 12:40:00,
2013-11-30 06:45:00,38.7,34.2,30.34,SW,225,5.8,5.8,84,0.00,CLR,,0.00,WeatherDisplay:10.37,2013-11-30 12:45:00,
2013-11-30 06:50:00,38.8,34.4,30.34,SW,225,5.8,5.8,84,0.00,CLR,,0.00,WeatherDisplay:10.37,2013-11-30 12:50:00,
2013-11-30 06:55:00,38.8,34.4,30.34,WSW,248,4.6,4.6,84,0.00,CLR,,0.00,WeatherDisplay:10.37,2013-11-30 12:55:00,
2013-11-30 07:00:00,38.8,34.4,30.34,SSW,202,4.6,4.6,84,0.00,CLR,,0.00,WeatherDisplay:10.37,2013-11-30 13:00:00,
2013-11-30 07:05:00,38.8,34.4,30.34,SSW,202,5.8,5.8,84,0.00,CLR,,0.00,WeatherDisplay:10.37,2013-11-30 13:05:00,
2013-11-30 07:10:00,38.8,34.7,30.34,WSW,248,4.9,4.9,85,0.00,CLR,,0.00,WeatherDisplay:10.37,2013-11-30 13:10:00,
2013-11-30 07:15:00,38.8,34.7,30.34,WSW,248,4.6,4.6,85,0.00,CLR,,0.00,WeatherDisplay:10.37,2013-11-30 13:15:00,
2013-11-30 07:20:00,38.8,34.7,30.34,SW,225,4.9,4.9,85,0.00,CLR,,0.00,WeatherDisplay:10.37,2013-11-30 13:20:00,
2013-11-30 07:25:00,38.8,34.7,30.34,SW,225,4.6,4.6,85,0.00,CLR,,0.00,WeatherDisplay:10.37,2013-11-30 13:25:00,
2013-11-30 07:30:00,39.0,34.9,30.34,SW,225,4.6,4.6,85,0.00,CLR,,0.00,WeatherDisplay:10.37,2013-11-30 13:30:00,
2013-11-30 07:35:00,39.0,34.9,30.34,WSW,248,4.7,4.7,85,0.00,CLR,,0.00,WeatherDisplay:10.37,2013-11-30 13:35:00,
2013-11-30 07:40:00,39.2,35.1,30.34,WSW,248,4.7,5.4,85,0.00,CLR,,0.00,WeatherDisplay:10.37,2013-11-30 13:40:00,
2013-11-30 07:45:00,39.6,35.4,30.34,SSW,202,3.5,3.6,85,0.00,CLR,,0.00,WeatherDisplay:10.37,2013-11-30 13:45:00,
2013-11-30 07:50:00,39.7,35.6,30.34,SE,135,5.8,5.8,85,0.00,CLR,,0.00,WeatherDisplay:10.37,2013-11-30 13:50:00,
2013-11-30 07:55:00,40.3,36.4,30.34,South,180,6.4,6.4,86,0.00,CLR,,0.00,WeatherDisplay:10.37,2013-11-30 13:55:00,
2013-11-30 08:00:00,40.6,36.8,30.34,SSW,202,5.8,5.8,86,0.00,CLR,,0.00,WeatherDisplay:10.37,2013-11-30 14:00:00,
2013-11-30 08:05:00,40.8,37.0,30.34,SSW,202,5.8,5.8,86,0.00,CLR,,0.00,WeatherDisplay:10.37,2013-11-30 14:05:00,
2013-11-30 08:10:00,41.2,37.3,30.34,South,180,5.8,5.8,86,0.00,CLR,,0.00,WeatherDisplay:10.37,2013-11-30 14:10:00,
2013-11-30 08:15:00,41.5,37.7,30.34,SW,225,4.6,4.6,86,0.00,CLR,,0.00,WeatherDisplay:10.37,2013-11-30 14:15:00,
2013-11-30 08:20:00,42.1,38.2,30.34,SW,225,5.8,5.8,86,0.00,CLR,,0.00,WeatherDisplay:10.37,2013-11-30 14:20:00,
2013-11-30 08:25:00,42.8,38.9,30.34,SSE,158,8.1,8.1,86,0.00,CLR,,0.00,WeatherDisplay:10.37,2013-11-30 14:25:00,
2013-11-30 08:30:00,43.2,39.3,30.34,SW,225,5.8,5.8,86,0.00,CLR,,0.00,WeatherDisplay:10.37,2013-11-30 14:30:00,
2013-11-30 08:35:00,43.9,40.0,30.34,SW,225,6.9,6.9,86,0.00,CLR,,0.00,WeatherDisplay:10.37,2013-11-30 14:35:00,
2013-11-30 08:40:00,44.4,40.2,30.34,SW,225,8.1,8.1,85,0.00,CLR,,0.00,WeatherDisplay:10.37,2013-11-30 14:40:00,
2013-11-30 08:45:00,45.0,40.4,30.37,South,180,6.2,6.2,84,0.00,CLR,,0.00,WeatherDisplay:10.37,2013-11-30 14:45:00,
2013-11-30 08:50:00,45.3,40.5,30.37,SW,225,7.8,7.8,83,0.00,CLR,,0.00,WeatherDisplay:10.37,2013-11-30 14:50:00,
2013-11-30 08:55:00,45.7,40.5,30.37,NW,315,5.8,5.8,82,0.00,CLR,,0.00,WeatherDisplay:10.37,2013-11-30 14:55:00,
2013-11-30 09:00:00,46.2,40.7,30.34,SSE,158,6.2,6.2,81,0.00,CLR,,0.00,WeatherDisplay:10.37,2013-11-30 15:00:00,
2013-11-30 09:05:00,46.6,40.7,30.34,South,180,4.6,4.6,80,0.00,CLR,,0.00,WeatherDisplay:10.37,2013-11-30 15:05:00,
2013-11-30 09:10:00,46.8,40.3,30.34,West,270,6.9,6.9,78,0.00,CLR,,0.00,WeatherDisplay:10.37,2013-11-30 15:10:00,
2013-11-30 09:15:00,47.3,39.8,30.37,SSW,202,5.8,5.8,75,0.00,CLR,,0.00,WeatherDisplay:10.37,2013-11-30 15:15:00,
2013-11-30 09:20:00,47.7,40.1,30.37,South,180,8.1,8.1,75,0.00,CLR,,0.00,WeatherDisplay:10.37,2013-11-30 15:20:00,
2013-11-30 09:25:00,47.8,40.3,30.37,WSW,248,8.1,8.1,75,0.00,CLR,,0.00,WeatherDisplay:10.37,2013-11-30 15:25:00,
2013-11-30 09:30:00,48.2,40.3,30.34,SE,135,5.8,5.8,74,0.00,CLR,,0.00,WeatherDisplay:10.37,2013-11-30 15:30:00,
2013-11-30 09:35:00,48.7,40.8,30.34,SW,225,8.1,8.1,74,0.00,CLR,,0.00,WeatherDisplay:10.37,2013-11-30 15:35:00,
2013-11-30 09:40:00,49.8,41.9,30.34,SW,225,9.2,9.2,74,0.00,CLR,,0.00,WeatherDisplay:10.37,2013-11-30 15:40:00,
2013-11-30 09:45:00,50.7,42.0,30.37,South,180,12.7,12.7,72,0.00,CLR,,0.00,WeatherDisplay:10.37,2013-11-30 15:45:00,
2013-11-30 09:50:00,51.6,42.2,30.37,South,180,9.2,9.2,70,0.00,CLR,,0.00,WeatherDisplay:10.37,2013-11-30 15:50:00,
2013-11-30 09:55:00,52.3,41.3,30.37,South,180,10.5,10.5,66,0.00,CLR,,0.00,WeatherDisplay:10.37,2013-11-30 15:55:00,
2013-11-30 10:00:00,53.1,40.8,30.37,South,180,11.4,11.4,63,0.00,CLR,,0.00,WeatherDisplay:10.37,2013-11-30 16:00:00,
2013-11-30 10:05:00,53.4,40.3,30.37,South,180,10.0,10.0,61,0.00,CLR,,0.00,WeatherDisplay:10.37,2013-11-30 16:05:00,
2013-11-30 10:10:00,53.6,39.2,30.37,WSW,248,9.2,9.2,58,0.00,CLR,,0.00,WeatherDisplay:10.37,2013-11-30 16:10:00,
2013-11-30 10:15:00,53.4,39.4,30.34,SW,225,8.5,8.5,59,0.00,CLR,,0.00,WeatherDisplay:10.37,2013-11-30 16:15:00,
2013-11-30 10:20:00,53.4,39.9,30.34,SSW,202,6.9,6.9,60,0.00,CLR,,0.00,WeatherDisplay:10.37,2013-11-30 16:20:00,
2013-11-30 10:25:00,53.6,39.2,30.34,South,180,10.4,10.4,58,0.00,CLR,,0.00,WeatherDisplay:10.37,2013-11-30 16:25:00,
2013-11-30 10:30:00,53.8,39.8,30.34,SSW,202,8.1,8.1,59,0.00,CLR,,0.00,WeatherDisplay:10.37,2013-11-30 16:30:00,
2013-11-30 10:35:00,54.1,39.7,30.34,West,270,10.4,10.4,58,0.00,CLR,,0.00,WeatherDisplay:10.37,2013-11-30 16:35:00,
2013-11-30 10:40:00,54.3,40.3,30.34,SW,225,8.1,8.1,59,0.00,CLR,,0.00,WeatherDisplay:10.37,2013-11-30 16:40:00,
2013-11-30 10:45:00,54.5,39.6,30.34,SSW,202,9.2,9.2,57,0.00,CLR,,0.00,WeatherDisplay:10.37,2013-11-30 16:45:00,
2013-11-30 10:50:00,54.7,40.2,30.34,SSW,202,9.2,9.2,58,0.00,CLR,,0.00,WeatherDisplay:10.37,2013-11-30 16:50:00,
2013-11-30 10:55:00,55.0,40.5,30.34,SW,225,10.4,10.4,58,0.00,CLR,,0.00,WeatherDisplay:10.37,2013-11-30 16:55:00,
2013-11-30 11:00:00,55.6,40.1,30.37,SW,225,8.1,8.1,56,0.00,CLR,,0.00,WeatherDisplay:10.37,2013-11-30 17:00:00,
2013-11-30 11:05:00,55.9,40.5,30.37,SW,225,8.1,8.1,56,0.00,CLR,,0.00,WeatherDisplay:10.37,2013-11-30 17:05:00,
2013-11-30 11:10:00,56.3,40.3,30.37,South,180,11.5,11.5,55,0.00,CLR,,0.00,WeatherDisplay:10.37,2013-11-30 17:10:00,
2013-11-30 11:15:00,56.8,39.4,30.34,South,180,8.1,8.1,52,0.00,CLR,,0.00,WeatherDisplay:10.37,2013-11-30 17:15:00,
2013-11-30 11:20:00,57.2,39.2,30.34,SW,225,5.8,5.9,51,0.00,CLR,,0.00,WeatherDisplay:10.37,2013-11-30 17:20:00,
2013-11-30 11:25:00,57.6,39.0,30.34,West,270,9.2,9.2,50,0.00,CLR,,0.00,WeatherDisplay:10.37,2013-11-30 17:25:00,
2013-11-30 11:30:00,57.7,38.7,30.34,SSW,202,10.4,10.4,49,0.00,CLR,,0.00,WeatherDisplay:10.37,2013-11-30 17:30:00,
2013-11-30 11:35:00,57.7,38.2,30.34,SSE,158,10.4,10.4,48,0.00,CLR,,0.00,WeatherDisplay:10.37,2013-11-30 17:35:00,
2013-11-30 11:40:00,57.6,38.5,30.34,SW,225,9.2,9.2,49,0.00,CLR,,0.00,WeatherDisplay:10.37,2013-11-30 17:40:00,
2013-11-30 11:45:00,57.7,38.7,30.31,SW,225,11.5,11.5,49,0.00,CLR,,0.00,WeatherDisplay:10.37,2013-11-30 17:45:00,
2013-11-30 11:50:00,57.9,38.9,30.31,SW,225,9.4,9.7,49,0.00,CLR,,0.00,WeatherDisplay:10.37,2013-11-30 17:50:00,
2013-11-30 11:55:00,58.3,39.2,30.31,SSW,202,10.4,10.4,49,0.00,CLR,,0.00,WeatherDisplay:10.37,2013-11-30 17:55:00,
2013-11-30 12:00:00,58.6,39.5,30.31,SW,225,8.1,8.1,49,0.00,CLR,,0.00,WeatherDisplay:10.37,2013-11-30 18:00:00,
2013-11-30 12:05:00,58.8,40.2,30.31,SW,225,11.5,11.5,50,0.00,CLR,,0.00,WeatherDisplay:10.37,2013-11-30 18:05:00,
2013-11-30 12:10:00,58.8,40.2,30.31,SW,225,10.4,10.4,50,0.00,CLR,,0.00,WeatherDisplay:10.37,2013-11-30 18:10:00,
2013-11-30 12:15:00,59.0,40.9,30.31,SSW,202,10.4,10.4,51,0.00,CLR,,0.00,WeatherDisplay:10.37,2013-11-30 18:15:00,
2013-11-30 12:20:00,58.8,41.2,30.31,WSW,248,11.5,11.5,52,0.00,CLR,,0.00,WeatherDisplay:10.37,2013-11-30 18:20:00,
2013-11-30 12:25:00,58.8,41.7,30.31,South,180,8.1,8.1,53,0.00,CLR,,0.00,WeatherDisplay:10.37,2013-11-30 18:25:00,
2013-11-30 12:30:00,59.0,41.9,30.31,SW,225,11.5,11.5,53,0.00,CLR,,0.00,WeatherDisplay:10.37,2013-11-30 18:30:00,
2013-11-30 12:35:00,59.0,41.9,30.31,West,270,12.7,12.7,53,0.00,CLR,,0.00,WeatherDisplay:10.37,2013-11-30 18:35:00,
2013-11-30 12:40:00,59.2,42.0,30.31,SW,225,10.4,10.4,53,0.00,CLR,,0.00,WeatherDisplay:10.37,2013-11-30 18:40:00,
2013-11-30 12:45:00,59.5,42.4,30.31,South,180,11.5,11.5,53,0.00,CLR,,0.00,WeatherDisplay:10.37,2013-11-30 18:45:00,
2013-11-30 12:50:00,59.9,43.2,30.31,SSW,202,13.0,13.0,54,0.00,CLR,,0.00,WeatherDisplay:10.37,2013-11-30 18:50:00,
2013-11-30 12:55:00,59.7,43.0,30.31,WSW,248,10.4,10.4,54,0.00,CLR,,0.00,WeatherDisplay:10.37,2013-11-30 18:55:00,
2013-11-30 13:00:00,59.7,43.5,30.28,ESE,112,9.2,9.2,55,0.00,CLR,,0.00,WeatherDisplay:10.37,2013-11-30 19:00:00,
2013-11-30 13:05:00,59.5,43.8,30.28,SSW,202,9.2,9.2,56,0.00,CLR,,0.00,WeatherDisplay:10.37,2013-11-30 19:05:00,
2013-11-30 13:10:00,59.7,44.0,30.28,WSW,248,9.2,9.2,56,0.00,CLR,,0.00,WeatherDisplay:10.37,2013-11-30 19:10:00,
2013-11-30 13:15:00,59.7,44.9,30.28,South,180,10.4,10.4,58,0.00,CLR,,0.00,WeatherDisplay:10.37,2013-11-30 19:15:00,
2013-11-30 13:20:00,59.9,45.5,30.28,SW,225,11.5,11.5,59,0.00,CLR,,0.00,WeatherDisplay:10.37,2013-11-30 19:20:00,
2013-11-30 13:25:00,59.9,46.0,30.28,SSW,202,6.9,6.9,60,0.00,CLR,,0.00,WeatherDisplay:10.37,2013-11-30 19:25:00,
2013-11-30 13:30:00,60.1,46.6,30.28,South,180,9.2,9.2,61,0.00,CLR,,0.00,WeatherDisplay:10.37,2013-11-30 19:30:00,
2013-11-30 13:35:00,60.4,46.9,30.28,WSW,248,7.1,7.1,61,0.00,CLR,,0.00,WeatherDisplay:10.37,2013-11-30 19:35:00,
2013-11-30 13:40:00,60.4,46.5,30.28,WSW,248,9.2,9.2,60,0.00,CLR,,0.00,WeatherDisplay:10.37,2013-11-30 19:40:00,
2013-11-30 13:45:00,60.6,46.7,30.25,WSW,248,10.4,10.4,60,0.00,CLR,,0.00,WeatherDisplay:10.37,2013-11-30 19:45:00,
2013-11-30 13:50:00,60.6,46.7,30.25,SW,225,11.5,11.5,60,0.00,CLR,,0.00,WeatherDisplay:10.37,2013-11-30 19:50:00,
2013-11-30 13:55:00,60.6,46.2,30.25,SW,225,11.5,11.5,59,0.00,CLR,,0.00,WeatherDisplay:10.37,2013-11-30 19:55:00,
2013-11-30 14:00:00,60.6,46.2,30.25,SW,225,14.5,14.5,59,0.00,CLR,,0.00,WeatherDisplay:10.37,2013-11-30 20:00:00,
2013-11-30 14:05:00,60.8,45.9,30.25,WSW,248,9.7,9.7,58,0.00,CLR,,0.00,WeatherDisplay:10.37,2013-11-30 20:05:00,
2013-11-30 14:10:00,61.0,46.1,30.25,South,180,9.2,9.2,58,0.00,CLR,,0.00,WeatherDisplay:10.37,2013-11-30 20:10:00,
2013-11-30 14:15:00,60.8,45.9,30.25,WSW,248,6.9,6.9,58,0.00,CLR,,0.00,WeatherDisplay:10.37,2013-11-30 20:15:00,
2013-11-30 14:20:00,61.0,46.1,30.25,WSW,248,11.5,11.5,58,0.00,CLR,,0.00,WeatherDisplay:10.37,2013-11-30 20:20:00,
2013-11-30 14:25:00,61.2,46.3,30.25,SW,225,10.5,10.5,58,0.00,CLR,,0.00,WeatherDisplay:10.37,2013-11-30 20:25:00,
2013-11-30 14:30:00,61.5,46.6,30.25,SW,225,9.2,9.2,58,0.00,CLR,,0.00,WeatherDisplay:10.37,2013-11-30 20:30:00,
2013-11-30 14:35:00,61.9,47.4,30.25,SW,225,9.2,9.2,59,0.00,CLR,,0.00,WeatherDisplay:10.37,2013-11-30 20:35:00,
2013-11-30 14:40:00,61.9,46.9,30.25,SW,225,10.4,10.4,58,0.00,CLR,,0.00,WeatherDisplay:10.37,2013-11-30 20:40:00,
2013-11-30 14:46:00,61.7,47.2,30.22,SSW,202,8.7,8.7,59,0.00,CLR,,0.00,WeatherDisplay:10.37,2013-11-30 20:46:00,
2013-11-30 14:51:00,62.1,47.6,30.22,South,180,10.4,10.4,59,0.00,CLR,,0.00,WeatherDisplay:10.37,2013-11-30 20:51:00,
2013-11-30 14:56:00,61.9,47.4,30.22,SSE,158,8.1,8.1,59,0.00,CLR,,0.00,WeatherDisplay:10.37,2013-11-30 20:56:00,
2013-11-30 15:01:00,62.1,48.0,30.22,South,180,9.2,9.2,60,0.00,CLR,,0.00,WeatherDisplay:10.37,2013-11-30 21:01:00,
2013-11-30 15:06:00,62.2,48.2,30.22,SSE,158,8.1,8.1,60,0.00,CLR,,0.00,WeatherDisplay:10.37,2013-11-30 21:06:00,
2013-11-30 15:11:00,62.4,48.3,30.22,SW,225,12.7,12.7,60,0.00,CLR,,0.00,WeatherDisplay:10.37,2013-11-30 21:11:00,
2013-11-30 15:16:00,62.6,48.5,30.22,SW,225,8.1,8.1,60,0.00,CLR,,0.00,WeatherDisplay:10.37,2013-11-30 21:16:00,
2013-11-30 15:21:00,62.6,48.5,30.22,SW,225,12.7,12.7,60,0.00,CLR,,0.00,WeatherDisplay:10.37,2013-11-30 21:21:00,
2013-11-30 15:26:00,62.6,49.0,30.22,South,180,10.4,10.4,61,0.00,CLR,,0.00,WeatherDisplay:10.37,2013-11-30 21:26:00,
2013-11-30 15:31:00,62.6,49.0,30.22,SSE,158,9.2,9.2,61,0.00,CLR,,0.00,WeatherDisplay:10.37,2013-11-30 21:31:00,
2013-11-30 15:36:00,62.8,49.6,30.22,SW,225,10.4,10.4,62,0.00,CLR,,0.00,WeatherDisplay:10.37,2013-11-30 21:36:00,
2013-11-30 15:41:00,62.6,49.4,30.22,South,180,6.9,6.9,62,0.00,CLR,,0.00,WeatherDisplay:10.37,2013-11-30 21:41:00,
2013-11-30 15:46:00,62.6,49.8,30.22,WSW,248,8.1,8.1,63,0.00,CLR,,0.00,WeatherDisplay:10.37,2013-11-30 21:46:00,
2013-11-30 15:51:00,62.6,49.8,30.22,WSW,248,9.2,9.2,63,0.00,CLR,,0.00,WeatherDisplay:10.37,2013-11-30 21:51:00,
2013-11-30 15:56:00,62.6,49.8,30.22,SSW,202,10.0,10.0,63,0.00,CLR,,0.00,WeatherDisplay:10.37,2013-11-30 21:56:00,
2013-11-30 16:01:00,62.4,50.1,30.22,South,180,10.9,10.9,64,0.00,CLR,,0.00,WeatherDisplay:10.37,2013-11-30 22:01:00,
2013-11-30 16:06:00,62.4,50.1,30.22,South,180,9.2,9.2,64,0.00,CLR,,0.00,WeatherDisplay:10.37,2013-11-30 22:06:00,
2013-11-30 16:11:00,62.2,50.3,30.22,SW,225,13.2,13.2,65,0.00,CLR,,0.00,WeatherDisplay:10.37,2013-11-30 22:11:00,
2013-11-30 16:16:00,62.1,50.2,30.22,WSW,248,11.5,11.5,65,0.00,CLR,,0.00,WeatherDisplay:10.37,2013-11-30 22:16:00,
2013-11-30 16:21:00,61.9,50.0,30.22,South,180,12.5,12.5,65,0.00,CLR,,0.00,WeatherDisplay:10.37,2013-11-30 22:21:00,
2013-11-30 16:26:00,61.7,50.2,30.22,SSW,202,9.2,9.2,66,0.00,CLR,,0.00,WeatherDisplay:10.37,2013-11-30 22:26:00,
2013-11-30 16:31:00,61.3,49.9,30.22,SSW,202,9.2,9.2,66,0.00,CLR,,0.00,WeatherDisplay:10.37,2013-11-30 22:31:00,
2013-11-30 16:36:00,61.3,49.9,30.22,SSW,202,6.9,6.9,66,0.00,CLR,,0.00,WeatherDisplay:10.37,2013-11-30 22:36:00,
2013-11-30 16:41:00,61.2,50.1,30.22,SW,225,9.2,9.2,67,0.00,CLR,,0.00,WeatherDisplay:10.37,2013-11-30 22:41:00,
2013-11-30 16:46:00,61.0,49.9,30.19,SW,225,8.5,8.5,67,0.00,CLR,,0.00,WeatherDisplay:10.37,2013-11-30 22:46:00,
2013-11-30 16:51:00,60.4,49.8,30.19,South,180,6.9,6.9,68,0.00,CLR,,0.00,WeatherDisplay:10.37,2013-11-30 22:51:00,
2013-11-30 16:56:00,60.1,49.5,30.19,South,180,6.0,6.4,68,0.00,CLR,,0.00,WeatherDisplay:10.37,2013-11-30 22:56:00,
2013-11-30 17:01:00,59.7,49.1,30.19,WSW,248,9.2,9.2,68,0.00,CLR,,0.00,WeatherDisplay:10.37,2013-11-30 23:01:00,
2013-11-30 17:06:00,59.4,49.2,30.19,SW,225,8.1,8.1,69,0.00,CLR,,0.00,WeatherDisplay:10.37,2013-11-30 23:06:00,
2013-11-30 17:11:00,59.0,49.2,30.19,WSW,248,10.4,10.4,70,0.00,CLR,,0.00,WeatherDisplay:10.37,2013-11-30 23:11:00,
2013-11-30 17:16:00,58.6,48.9,30.19,SW,225,9.4,9.4,70,0.00,CLR,,0.00,WeatherDisplay:10.37,2013-11-30 23:16:00,
2013-11-30 17:21:00,58.3,48.9,30.19,SW,225,9.2,9.2,71,0.00,CLR,,0.00,WeatherDisplay:10.37,2013-11-30 23:21:00,
2013-11-30 17:26:00,57.9,48.9,30.19,WSW,248,7.1,7.1,72,0.00,CLR,,0.00,WeatherDisplay:10.37,2013-11-30 23:26:00,
2013-11-30 17:31:00,57.6,49.0,30.19,WSW,248,9.2,9.2,73,0.00,CLR,,0.00,WeatherDisplay:10.37,2013-11-30 23:31:00,
2013-11-30 17:36:00,57.6,49.0,30.19,SSW,202,8.5,8.5,73,0.00,CLR,,0.00,WeatherDisplay:10.37,2013-11-30 23:36:00,
2013-11-30 17:41:00,57.4,49.2,30.19,SW,225,8.1,8.1,74,0.00,CLR,,0.00,WeatherDisplay:10.37,2013-11-30 23:41:00,
2013-11-30 17:46:00,57.2,49.0,30.19,SW,225,8.1,8.1,74,0.00,CLR,,0.00,WeatherDisplay:10.37,2013-11-30 23:46:00,
2013-11-30 17:51:00,57.0,49.2,30.19,WSW,248,9.2,9.2,75,0.00,CLR,,0.00,WeatherDisplay:10.37,2013-11-30 23:51:00,
2013-11-30 17:56:00,56.8,49.4,30.19,SW,225,8.1,8.1,76,0.00,CLR,,0.00,WeatherDisplay:10.37,2013-11-30 23:56:00,
2013-11-30 18:01:00,56.5,49.0,30.22,WSW,248,6.9,6.9,76,0.00,CLR,,0.00,WeatherDisplay:10.37,2013-12-01 00:01:00,
2013-11-30 18:06:00,56.3,49.2,30.22,West,270,5.8,5.8,77,0.00,CLR,,0.00,WeatherDisplay:10.37,2013-12-01 00:06:00,
2013-11-30 18:11:00,56.3,49.2,30.22,SW,225,5.8,5.8,77,0.00,CLR,,0.00,WeatherDisplay:10.37,2013-12-01 00:11:00,
2013-11-30 18:16:00,56.1,49.0,30.22,SW,225,4.6,4.6,77,0.00,CLR,,0.00,WeatherDisplay:10.37,2013-12-01 00:16:00,
2013-11-30 18:21:00,55.9,49.2,30.22,West,270,4.6,4.6,78,0.00,CLR,,0.00,WeatherDisplay:10.37,2013-12-01 00:21:00,
2013-11-30 18:26:00,55.6,48.8,30.22,SW,225,3.5,3.6,78,0.00,CLR,,0.00,WeatherDisplay:10.37,2013-12-01 00:26:00,
2013-11-30 18:31:00,55.2,48.8,30.19,West,270,3.5,3.5,79,0.00,CLR,,0.00,WeatherDisplay:10.37,2013-12-01 00:31:00,
2013-11-30 18:36:00,55.0,48.6,30.19,WSW,248,4.6,4.6,79,0.00,CLR,,0.00,WeatherDisplay:10.37,2013-12-01 00:36:00,
2013-11-30 18:41:00,55.0,48.6,30.19,SW,225,4.6,4.6,79,0.00,CLR,,0.00,WeatherDisplay:10.37,2013-12-01 00:41:00,
2013-11-30 18:46:00,54.9,48.5,30.22,South,180,5.9,6.0,79,0.00,CLR,,0.00,WeatherDisplay:10.37,2013-12-01 00:46:00,
2013-11-30 18:51:00,54.9,48.5,30.22,South,180,4.9,4.9,79,0.00,CLR,,0.00,WeatherDisplay:10.37,2013-12-01 00:51:00,
2013-11-30 18:56:00,54.9,48.8,30.22,SSW,202,5.9,5.9,80,0.00,CLR,,0.00,WeatherDisplay:10.37,2013-12-01 00:56:00,
2013-11-30 19:01:00,54.9,48.8,30.22,SW,225,8.1,8.1,80,0.00,CLR,,0.00,WeatherDisplay:10.37,2013-12-01 01:01:00,
2013-11-30 19:06:00,54.5,48.8,30.22,SW,225,6.9,6.9,81,0.00,CLR,,0.00,WeatherDisplay:10.37,2013-12-01 01:06:00,
2013-11-30 19:11:00,54.3,48.6,30.22,WSW,248,6.9,6.9,81,0.00,CLR,,0.00,WeatherDisplay:10.37,2013-12-01 01:11:00,
2013-11-30 19:16:00,54.0,48.3,30.19,SW,225,5.8,5.8,81,0.00,CLR,,0.00,WeatherDisplay:10.37,2013-12-01 01:16:00,
2013-11-30 19:21:00,53.8,48.1,30.19,SSW,202,6.9,6.9,81,0.00,CLR,,0.00,WeatherDisplay:10.37,2013-12-01 01:21:00,
2013-11-30 19:26:00,53.6,47.9,30.19,SW,225,5.8,5.8,81,0.00,CLR,,0.00,WeatherDisplay:10.37,2013-12-01 01:26:00,
2013-11-30 19:31:00,53.4,48.1,30.19,SW,225,5.8,5.8,82,0.00,CLR,,0.00,WeatherDisplay:10.37,2013-12-01 01:31:00,
2013-11-30 19:36:00,53.4,48.1,30.19,South,180,5.8,5.8,82,0.00,CLR,,0.00,WeatherDisplay:10.37,2013-12-01 01:36:00,
2013-11-30 19:41:00,53.2,47.9,30.19,SW,225,5.8,5.8,82,0.00,CLR,,0.00,WeatherDisplay:10.37,2013-12-01 01:41:00,
2013-11-30 19:43:00,53.2,47.9,30.19,WSW,248,5.8,5.8,82,0.00,CLR,,0.00,WeatherDisplay:10.37,2013-12-01 01:43:00,
2013-11-30 19:48:00,53.1,47.7,30.22,SW,225,4.6,4.6,82,0.00,CLR,,0.00,WeatherDisplay:10.37,2013-12-01 01:48:00,
2013-11-30 19:53:00,52.7,47.4,30.22,SW,225,4.6,4.6,82,0.00,CLR,,0.00,WeatherDisplay:10.37,2013-12-01 01:53:00,
2013-11-30 19:58:00,52.5,47.2,30.22,SW,225,3.5,3.5,82,0.00,CLR,,0.00,WeatherDisplay:10.37,2013-12-01 01:58:00,
2013-11-30 20:03:00,52.3,47.0,30.19,SSW,202,3.5,3.5,82,0.00,CLR,,0.00,WeatherDisplay:10.37,2013-12-01 02:03:00,
2013-11-30 20:08:00,52.2,47.2,30.19,WSW,248,3.8,3.8,83,0.00,CLR,,0.00,WeatherDisplay:10.37,2013-12-01 02:08:00,
2013-11-30 20:13:00,51.8,46.8,30.19,SW,225,4.9,4.9,83,0.00,CLR,,0.00,WeatherDisplay:10.37,2013-12-01 02:13:00,
2013-11-30 20:18:00,51.6,46.9,30.19,SW,225,4.6,4.6,84,0.00,CLR,,0.00,WeatherDisplay:10.37,2013-12-01 02:18:00,
2013-11-30 20:23:00,51.4,46.8,30.19,South,180,3.5,3.5,84,0.00,CLR,,0.00,WeatherDisplay:10.37,2013-12-01 02:23:00,
2013-11-30 20:28:00,51.3,46.6,30.19,South,180,4.6,4.6,84,0.00,CLR,,0.00,WeatherDisplay:10.37,2013-12-01 02:28:00,
2013-11-30 20:33:00,51.1,46.7,30.19,SW,225,3.8,3.8,85,0.00,CLR,,0.00,WeatherDisplay:10.37,2013-12-01 02:33:00,
2013-11-30 20:38:00,50.9,46.6,30.19,SW,225,3.5,3.5,85,0.00,CLR,,0.00,WeatherDisplay:10.37,2013-12-01 02:38:00,
2013-11-30 20:43:00,50.7,46.4,30.19,SW,225,3.5,3.5,85,0.00,CLR,,0.00,WeatherDisplay:10.37,2013-12-01 02:43:00,
2013-11-30 20:48:00,50.5,46.5,30.19,SW,225,3.5,3.5,86,0.00,CLR,,0.00,WeatherDisplay:10.37,2013-12-01 02:48:00,
2013-11-30 20:53:00,50.4,46.3,30.19,South,180,3.5,3.5,86,0.00,CLR,,0.00,WeatherDisplay:10.37,2013-12-01 02:53:00,
2013-11-30 20:58:00,50.4,46.3,30.19,South,180,2.6,2.6,86,0.00,CLR,,0.00,WeatherDisplay:10.37,2013-12-01 02:58:00,
2013-11-30 21:04:00,50.2,46.2,30.19,WSW,248,2.3,2.3,86,0.00,CLR,,0.00,WeatherDisplay:10.37,2013-12-01 03:04:00,
2013-11-30 21:09:00,50.2,46.2,30.19,WSW,248,0.0,0.0,86,0.00,CLR,,0.00,WeatherDisplay:10.37,2013-12-01 03:09:00,
2013-11-30 21:14:00,50.0,46.3,30.19,SE,135,0.0,0.0,87,0.00,CLR,,0.00,WeatherDisplay:10.37,2013-12-01 03:14:00,
2013-11-30 21:19:00,49.8,46.4,30.19,SE,135,0.0,0.0,88,0.00,CLR,,0.00,WeatherDisplay:10.37,2013-12-01 03:19:00,
2013-11-30 21:24:00,49.6,46.2,30.19,SSE,158,0.0,0.0,88,0.00,CLR,,0.00,WeatherDisplay:10.37,2013-12-01 03:24:00,
2013-11-30 21:29:00,49.6,46.2,30.19,SE,135,0.0,0.0,88,0.00,CLR,,0.00,WeatherDisplay:10.37,2013-12-01 03:29:00,
2013-11-30 21:34:00,49.5,46.1,30.19,SE,135,0.0,0.0,88,0.00,CLR,,0.00,WeatherDisplay:10.37,2013-12-01 03:34:00,
2013-11-30 21:39:00,49.3,45.9,30.19,SSE,158,0.0,0.0,88,0.00,CLR,,0.00,WeatherDisplay:10.37,2013-12-01 03:39:00,
2013-11-30 21:44:00,48.9,45.5,30.19,SE,135,1.2,0.0,88,0.00,CLR,,0.00,WeatherDisplay:10.37,2013-12-01 03:44:00,
2013-11-30 21:49:00,48.7,45.6,30.19,SE,135,0.0,0.0,89,0.00,CLR,,0.00,WeatherDisplay:10.37,2013-12-01 03:49:00,
2013-11-30 21:54:00,48.7,45.6,30.19,SE,135,0.0,0.0,89,0.00,CLR,,0.00,WeatherDisplay:10.37,2013-12-01 03:54:00,
2013-11-30 21:59:00,48.6,45.5,30.19,SW,225,1.2,0.0,89,0.00,CLR,,0.00,WeatherDisplay:10.37,2013-12-01 03:59:00,
2013-11-30 22:04:00,48.4,45.3,30.19,SW,225,1.2,1.2,89,0.00,CLR,,0.00,WeatherDisplay:10.37,2013-12-01 04:04:00,
2013-11-30 22:09:00,48.4,45.3,30.19,SW,225,1.2,1.4,89,0.00,CLR,,0.00,WeatherDisplay:10.37,2013-12-01 04:09:00,
2013-11-30 22:14:00,48.2,45.4,30.19,WSW,248,1.2,0.0,90,0.00,CLR,,0.00,WeatherDisplay:10.37,2013-12-01 04:14:00,
2013-11-30 22:19:00,48.2,45.4,30.19,WSW,248,1.2,1.2,90,0.00,CLR,,0.00,WeatherDisplay:10.37,2013-12-01 04:19:00,
2013-11-30 22:24:00,48.2,45.4,30.19,SW,225,0.0,0.0,90,0.00,CLR,,0.00,WeatherDisplay:10.37,2013-12-01 04:24:00,
2013-11-30 22:29:00,48.0,45.5,30.19,SE,135,0.0,0.0,91,0.00,CLR,,0.00,WeatherDisplay:10.37,2013-12-01 04:29:00,
2013-11-30 22:34:00,48.0,45.5,30.22,SE,135,0.0,0.0,91,0.00,CLR,,0.00,WeatherDisplay:10.37,2013-12-01 04:34:00,
2013-11-30 22:39:00,47.8,45.3,30.22,SE,135,0.0,0.0,91,0.00,CLR,,0.00,WeatherDisplay:10.37,2013-12-01 04:39:00,
2013-11-30 22:44:00,47.7,45.2,30.22,SE,135,0.0,0.0,91,0.00,CLR,,0.00,WeatherDisplay:10.37,2013-12-01 04:44:00,
2013-11-30 22:49:00,47.7,45.2,30.22,SE,135,0.0,0.0,91,0.00,CLR,,0.00,WeatherDisplay:10.37,2013-12-01 04:49:00,
2013-11-30 22:54:00,47.5,45.0,30.22,SE,135,0.0,0.0,91,0.00,CLR,,0.00,WeatherDisplay:10.37,2013-12-01 04:54:00,
2013-11-30 22:59:00,47.5,45.0,30.22,SE,135,0.0,0.0,91,0.00,CLR,,0.00,WeatherDisplay:10.37,2013-12-01 04:59:00,
2013-11-30 23:01:00,47.5,45.0,30.22,SE,135,0.0,0.0,91,0.00,CLR,,0.00,WeatherDisplay:10.37,2013-12-01 05:01:00,
2013-11-30 23:02:00,47.5,45.0,30.22,SE,135,0.0,0.0,91,0.00,CLR,,0.00,WeatherDisplay:10.37,2013-12-01 05:02:00,
2013-11-30 23:03:00,47.5,45.3,30.22,SE,135,0.0,0.0,92,0.00,CLR,,0.00,WeatherDisplay:10.37,2013-12-01 05:03:00,
2013-11-30 23:08:00,47.5,45.0,30.22,SE,135,0.0,0.0,91,0.00,CLR,,0.00,WeatherDisplay:10.37,2013-12-01 05:08:00,
2013-11-30 23:13:00,47.5,45.3,30.22,SE,135,0.0,0.0,92,0.00,CLR,,0.00,WeatherDisplay:10.37,2013-12-01 05:13:00,
2013-11-30 23:18:00,47.5,45.3,30.22,SE,135,0.0,0.0,92,0.00,CLR,,0.00,WeatherDisplay:10.37,2013-12-01 05:18:00,
2013-11-30 23:23:00,47.5,45.3,30.22,SE,135,0.0,0.0,92,0.00,CLR,,0.00,WeatherDisplay:10.37,2013-12-01 05:23:00,
2013-11-30 23:28:00,47.5,45.3,30.22,SE,135,0.0,0.0,92,0.00,CLR,,0.00,WeatherDisplay:10.37,2013-12-01 05:28:00,
2013-11-30 23:33:00,47.5,45.3,30.19,SE,135,0.0,0.0,92,0.00,CLR,,0.00,WeatherDisplay:10.37,2013-12-01 05:33:00,
2013-11-30 23:38:00,47.5,45.3,30.19,South,180,1.2,0.0,92,0.00,CLR,,0.00,WeatherDisplay:10.37,2013-12-01 05:38:00,
2013-11-30 23:43:00,47.5,45.6,30.19,SE,135,1.4,0.0,93,0.00,CLR,,0.00,WeatherDisplay:10.37,2013-12-01 05:43:00,
2013-11-30 23:48:00,47.5,45.6,30.19,SSW,202,2.3,2.3,93,0.00,CLR,,0.00,WeatherDisplay:10.37,2013-12-01 05:48:00,
2013-11-30 23:53:00,47.5,45.6,30.19,South,180,0.9,0.0,93,0.00,CLR,,0.00,WeatherDisplay:10.37,2013-12-01 05:53:00,
2013-11-30 23:58:00,47.3,45.4,30.19,SSE,158,0.0,0.0,93,0.00,CLR,,0.00,WeatherDisplay:10.37,2013-12-01 05:58:00,